Location: Allaines
(49.9632°N, 2.9458°E)
Time: 23:06:17
(UTC+00:00)

X-37B - Pass Details

Date: 30 June 2021
Orbit: 383 x 392 km, 45.0° (Epoch: 01 July)

Event Time Altitude Azimuth Distance (km) Brightness Sun altitude
Rises 21:42:40 0° 266° (W) 2,259 4.8 -11.5°
Reaches altitude 10° 21:44:59 10° 251° (WSW) 1,403 3.5 -11.7°
Maximum altitude 21:47:33 23° 197° (SSW) 874 2.0 -11.9°
Enters shadow 21:48:26 20° 171° (S) 951 2.0 -12.0°
